User: anonymous   Login
Location: Unspecified
(0.0000°N, 0.0000°E)
Time: 01:10:06
(UTC+00:00)
Language:

SICRAL 1B - Orbit

View from above orbital plane
View from above orbital plane
View from above satellite
View from above satellite

Ground track
Ground track

The orbit data is extracted from the following two-line orbital elements,

1 34810U 09020A   17227.34436347 0.00000000  00000-0  00000-0 0    03
2 34810   0.1800  99.7191 0003097  23.8781 336.0912  1.00270000    05
Epoch (UTC): 15 August 2017 08:15:53
Eccentricity: 0.0003097
inclination: 0.1800°
perigee height: 35773 km
apogee height: 35800 km
right ascension of ascending node: 99.7191°
argument of perigee: 23.8781°
revolutions per day: 1.00270000
mean anomaly at epoch: 336.0912°
orbit number at epoch: 0

The dashed part of the orbit path shows where the satellite is in the earth's shadow,  

DLR